SV1LH-1 Melissia GR current weather conditions

sailwx.info

Wind from 225 at 2 knots gusting 4

Air temperature 18.3° C
Dewpoint 13.4° C

Last reported at 2017-Feb-20 07:54 UTC.
Time now 2017-Feb-20 08:56 UTC

Location: N 38°03' E 023°51'.
View on Google Maps.

See reports from other nearby stations

  
Tides and Currents Weather Stations Pressure Air Temp Water Temp Dewpoint Dewpoint Depression Visibility Wind Speed Wind Dir Waves Ship Positions
date/time (UTC)wind fromknots sea level pressurealtimeterstation pressurevisibilityair tempwater tempwave heightnotes
2017-Feb-20 07:54 225 2 gusting 4 18.3
2017-Feb-20 07:49 247 0 gusting 1 18.3
2017-Feb-20 07:44 180 0 gusting 0 17.8
2017-Feb-20 07:39 292 0 gusting 1 17.8
2017-Feb-20 07:34 180 16.7
2017-Feb-20 07:29 225 16.7
2017-Feb-20 07:24 270 1 gusting 2 17.2
2017-Feb-20 07:19 225 16.7
2017-Feb-20 07:14 202 0 gusting 1 16.7
2017-Feb-20 07:09 315 16.7
2017-Feb-20 07:04 157 16.7
2017-Feb-20 06:59 202 16.7
2017-Feb-20 06:54 225 16.1
2017-Feb-20 06:49 045 15.6
2017-Feb-20 06:44 315 15.0
2017-Feb-20 06:39 022 13.9
2017-Feb-20 06:34 022 12.8
2017-Feb-20 06:29 022 11.7
2017-Feb-20 06:24 090 10.6
2017-Feb-20 06:19 112 10.0
2017-Feb-20 06:14 022 8.9
2017-Feb-20 06:09 022 8.3
2017-Feb-20 06:04 022 0 gusting 0 7.8
2017-Feb-20 05:59 067 7.2
2017-Feb-20 05:54 090 6.1
2017-Feb-20 05:49 067 6.1
2017-Feb-20 05:44 090 0 gusting 1 5.6
2017-Feb-20 05:39 090 1 gusting 2 5.6
2017-Feb-20 05:34 067 0 gusting 0 5.6
2017-Feb-20 05:29 090 0 gusting 1 5.6
2017-Feb-20 05:24 090 0 gusting 1 5.6
2017-Feb-20 05:19 045 5.6
2017-Feb-20 05:14 045 5.6
2017-Feb-20 05:09 112 0 gusting 1 5.6
2017-Feb-20 05:04 112 1 gusting 1 5.6
2017-Feb-20 04:59 090 5.6
2017-Feb-20 04:54 090 0 gusting 1 6.1
2017-Feb-20 04:49 112 6.1
2017-Feb-20 04:44 045 0 gusting 0 6.1
2017-Feb-20 04:39 090 6.1
2017-Feb-20 04:34 045 1 gusting 3 6.1
2017-Feb-20 04:29 6.1
2017-Feb-20 04:24 045 0 gusting 1 6.1
2017-Feb-20 04:19 045 6.1
2017-Feb-20 04:14 112 0 gusting 1 6.1
2017-Feb-20 04:09 022 0 gusting 1 6.1
2017-Feb-20 04:04 067 0 gusting 1 6.1
2017-Feb-20 03:59 112 6.1
2017-Feb-20 03:54 067 6.1
2017-Feb-20 03:49 090 6.1
2017-Feb-20 03:44 6.1
2017-Feb-20 03:39 045 6.1
2017-Feb-20 03:34 6.1
2017-Feb-20 03:29 112 6.1
2017-Feb-20 03:24 090 0 gusting 1 6.7
2017-Feb-20 03:19 090 6.7
2017-Feb-20 03:14 067 1 gusting 1 6.1
2017-Feb-20 03:09 045 6.1
2017-Feb-20 03:04 045 6.1
2017-Feb-20 02:59 270 6.1
2017-Feb-20 02:54 112 0 gusting 0 6.1
2017-Feb-20 02:49 135 0 gusting 0 6.7
2017-Feb-20 02:44 112 6.7
2017-Feb-20 02:39 045 6.7
2017-Feb-20 02:34 7.2
2017-Feb-20 02:29 090 0 gusting 1 7.2
2017-Feb-20 02:24 045 7.2
2017-Feb-20 02:19 315 7.8
2017-Feb-20 02:14 045 0 gusting 1 7.8
2017-Feb-20 02:09 045 0 gusting 0 7.8
2017-Feb-20 02:04 315 8.3
2017-Feb-20 01:59 225 8.3
2017-Feb-20 01:54 270 0 gusting 1 8.3
2017-Feb-20 01:49 202 8.3
2017-Feb-20 01:44 180 0 gusting 1 8.3
2017-Feb-20 01:39 180 0 gusting 1 8.3
2017-Feb-20 01:34 225 1 gusting 2 8.3
2017-Feb-20 01:29 270 0 gusting 1 8.9
2017-Feb-20 01:24 247 8.9
2017-Feb-20 01:19 315 1 gusting 1 8.9
2017-Feb-20 01:14 270 0 gusting 1 8.9
2017-Feb-20 01:09 180 1 gusting 2 8.9
2017-Feb-20 01:04 180 8.9
2017-Feb-20 00:59 247 0 gusting 1 8.9
2017-Feb-20 00:54 202 1 gusting 2 8.9
2017-Feb-20 00:49 180 2 gusting 3 8.9
2017-Feb-20 00:44 247 1 gusting 2 8.9
2017-Feb-20 00:39 202 1 gusting 5 8.9
2017-Feb-20 00:34 157 1 gusting 2 8.9
2017-Feb-20 00:29 225 8.9
2017-Feb-20 00:24 180 0 gusting 2 8.9
2017-Feb-20 00:19 247 2 gusting 5 8.9
2017-Feb-20 00:14 180 2 gusting 6 8.9
2017-Feb-20 00:09 202 2 gusting 4 8.9
2017-Feb-20 00:04 225 1 gusting 2 8.9
2017-Feb-19 23:59 202 0 gusting 1 8.9
2017-Feb-19 23:54 225 2 gusting 3 8.9
2017-Feb-19 23:49 180 1 gusting 2 8.9
2017-Feb-19 23:44 202 1 gusting 1 8.9
2017-Feb-19 23:39 247 1 gusting 1 9.4
2017-Feb-19 23:34 180 1 gusting 3 9.4
2017-Feb-19 23:29 202 2 gusting 4 9.4
2017-Feb-19 23:24 202 1 gusting 2 9.4
2017-Feb-19 23:19 180 2 gusting 5 9.4
2017-Feb-19 23:14 202 1 gusting 2 9.4
2017-Feb-19 23:09 202 1 gusting 1 9.4
2017-Feb-19 23:04 202 1 gusting 2 8.9
2017-Feb-19 22:59 202 1 gusting 3 8.9
2017-Feb-19 22:54 225 9.4
2017-Feb-19 22:49 045 9.4
2017-Feb-19 22:44 225 0 gusting 2 9.4
2017-Feb-19 22:39 247 1 gusting 3 9.4
2017-Feb-19 22:34 135 9.4
2017-Feb-19 22:29 270 0 gusting 1 9.4
2017-Feb-19 22:24 202 0 gusting 1 9.4
2017-Feb-19 22:19 315 0 gusting 0 9.4
2017-Feb-19 22:14 202 0 gusting 1 9.4
2017-Feb-19 22:09 292 9.4
2017-Feb-19 22:04 292 0 gusting 1 10.0
2017-Feb-19 21:59 180 0 gusting 1 10.0
2017-Feb-19 21:54 180 2 gusting 5 10.0
2017-Feb-19 21:49 337 2 gusting 3 10.0
2017-Feb-19 21:44 225 1 gusting 5 10.0
2017-Feb-19 21:39 180 0 gusting 1 10.0
2017-Feb-19 21:34 247 1 gusting 2 10.0
2017-Feb-19 21:29 247 2 gusting 4 10.0
2017-Feb-19 21:24 225 3 gusting 6 10.0
2017-Feb-19 21:19 225 10.0
2017-Feb-19 21:14 225 1 gusting 3 10.6
2017-Feb-19 21:09 202 3 gusting 5 10.6
2017-Feb-19 21:04 247 2 gusting 5 10.6
2017-Feb-19 20:59 270 5 gusting 7 10.6
2017-Feb-19 20:54 225 5 gusting 7 10.6
2017-Feb-19 20:49 225 2 gusting 6 10.6
2017-Feb-19 20:44 225 3 gusting 7 10.6
2017-Feb-19 20:39 247 3 gusting 5 10.6
2017-Feb-19 20:34 180 2 gusting 5 10.6
2017-Feb-19 20:29 225 5 gusting 8 10.6
2017-Feb-19 20:24 225 3 gusting 6 10.6
2017-Feb-19 20:19 180 3 gusting 6 10.6
2017-Feb-19 20:14 180 1 gusting 3 10.6
2017-Feb-19 20:09 180 2 gusting 3 10.6
2017-Feb-19 20:04 180 2 gusting 4 10.6
2017-Feb-19 19:59 292 2 gusting 6 10.6
2017-Feb-19 19:54 180 2 gusting 4 10.6
2017-Feb-19 19:49 225 2 gusting 4 10.6
2017-Feb-19 19:44 180 3 gusting 4 10.6
2017-Feb-19 19:39 225 3 gusting 4 10.6
2017-Feb-19 19:34 202 2 gusting 3 10.6
2017-Feb-19 19:29 180 2 gusting 4 10.6
2017-Feb-19 19:24 135 1 gusting 4 10.6
2017-Feb-19 19:19 135 4 gusting 6 10.6
2017-Feb-19 19:14 112 4 gusting 6 10.6
2017-Feb-19 19:09 202 5 gusting 8 10.6
2017-Feb-19 19:04 202 5 gusting 7 10.6
2017-Feb-19 18:59 157 2 gusting 4 10.6
2017-Feb-19 18:54 247 3 gusting 5 10.6
2017-Feb-19 18:49 270 3 gusting 6 10.6
2017-Feb-19 18:44 202 3 gusting 6 10.6
2017-Feb-19 18:39 225 4 gusting 6 10.6
2017-Feb-19 18:34 180 3 gusting 5 10.6
2017-Feb-19 18:29 225 5 gusting 7 10.6
2017-Feb-19 18:24 202 5 gusting 8 10.6
2017-Feb-19 18:19 202 5 gusting 6 10.6
2017-Feb-19 18:14 202 4 gusting 6 10.6
2017-Feb-19 18:09 247 2 gusting 5 10.6
2017-Feb-19 18:04 225 5 gusting 9 10.6
2017-Feb-19 17:59 225 6 gusting 9 10.6
2017-Feb-19 17:54 202 4 gusting 5 10.6
2017-Feb-19 17:49 180 2 gusting 4 10.6
2017-Feb-19 17:44 202 5 gusting 8 10.6
2017-Feb-19 17:39 180 3 gusting 5 10.6
2017-Feb-19 17:34 157 2 gusting 4 11.1
2017-Feb-19 17:29 135 1 gusting 3 11.1
2017-Feb-19 17:24 225 3 gusting 6 11.1
2017-Feb-19 17:19 180 2 gusting 4 11.1
2017-Feb-19 17:14 225 4 gusting 6 11.1
2017-Feb-19 17:09 180 5 gusting 8 11.1
2017-Feb-19 17:04 135 4 gusting 6 11.1
2017-Feb-19 16:59 157 1 gusting 3 11.1
2017-Feb-19 16:54 225 1 gusting 5 11.1
2017-Feb-19 16:49 180 2 gusting 3 11.1
2017-Feb-19 16:44 180 3 gusting 5 11.1
2017-Feb-19 16:39 180 4 gusting 5 11.1
2017-Feb-19 16:34 247 5 gusting 7 11.7
2017-Feb-19 16:29 157 6 gusting 9 11.7
2017-Feb-19 16:24 225 6 gusting 9 11.1
2017-Feb-19 16:19 225 7 gusting 10 11.1
2017-Feb-19 16:14 180 6 gusting 8 11.7
2017-Feb-19 16:09 225 5 gusting 7 11.7
2017-Feb-19 16:04 180 2 gusting 5 11.7
2017-Feb-19 15:59 292 5 gusting 7 11.7
2017-Feb-19 15:54 202 3 gusting 8 11.7
2017-Feb-19 15:49 225 7 gusting 12 11.7
2017-Feb-19 15:44 225 6 gusting 9 11.7
2017-Feb-19 15:39 270 4 gusting 6 11.7
2017-Feb-19 15:34 247 3 gusting 6 11.7
2017-Feb-19 15:29 247 5 gusting 7 11.7
2017-Feb-19 15:24 180 2 gusting 5 11.7
2017-Feb-19 15:19 225 5 gusting 8 12.2
2017-Feb-19 15:14 12.2
2017-Feb-19 15:09 202 5 gusting 6 12.2
2017-Feb-19 15:04 225 5 gusting 9 12.2
2017-Feb-19 14:59 202 6 gusting 11 12.2
2017-Feb-19 14:54 180 5 gusting 6 12.2
2017-Feb-19 14:49 247 6 gusting 9 12.2
2017-Feb-19 14:44 225 3 gusting 7 12.2
2017-Feb-19 14:39 225 6 gusting 7 12.8
2017-Feb-19 14:34 180 6 gusting 12 12.8
2017-Feb-19 14:29 247 3 gusting 6 12.8
2017-Feb-19 14:24 202 6 gusting 7 12.8
2017-Feb-19 14:19 247 4 gusting 6 12.8
2017-Feb-19 14:14 225 7 gusting 10 12.8
2017-Feb-19 14:09 202 5 gusting 8 12.8
2017-Feb-19 14:04 247 5 gusting 9 13.3
2017-Feb-19 13:59 202 6 gusting 8 13.3
2017-Feb-19 13:54 225 5 gusting 8 13.3
2017-Feb-19 13:49 315 5 gusting 8 13.3
2017-Feb-19 13:44 180 7 gusting 13 13.3
2017-Feb-19 13:39 157 5 gusting 8 13.9
2017-Feb-19 13:34 270 7 gusting 13 13.9
2017-Feb-19 13:29 247 5 gusting 9 13.9
2017-Feb-19 13:24 157 6 gusting 8 14.4
2017-Feb-19 13:19 225 5 gusting 7 14.4
2017-Feb-19 13:14 135 6 gusting 12 14.4
2017-Feb-19 13:09 180 5 gusting 9 14.4
2017-Feb-19 13:04 202 6 gusting 10 15.0
2017-Feb-19 12:59 180 6 gusting 10 15.6
2017-Feb-19 12:54 225 8 gusting 13 15.6
2017-Feb-19 12:49 292 7 gusting 13 15.6
2017-Feb-19 12:44 270 8 gusting 12 16.1
2017-Feb-19 12:39 180 6 gusting 10 15.6
2017-Feb-19 12:34 247 6 gusting 10 16.1
2017-Feb-19 12:29 225 6 gusting 10 16.7
2017-Feb-19 12:24 180 6 gusting 11 16.7
2017-Feb-19 12:19 202 6 gusting 13 16.7
2017-Feb-19 12:14 180 5 gusting 8 16.1
2017-Feb-19 12:09 180 6 gusting 11 15.6
2017-Feb-19 12:04 247 6 gusting 10 15.0
2017-Feb-19 11:59 247 3 gusting 6 15.0
2017-Feb-19 11:54 225 6 gusting 8 15.0
2017-Feb-19 11:49 180 5 gusting 8 15.6
2017-Feb-19 11:44 225 5 gusting 10 15.0
2017-Feb-19 11:39 225 6 gusting 9 15.0
2017-Feb-19 11:34 247 8 gusting 13 15.0
2017-Feb-19 11:29 112 6 gusting 11 15.0
2017-Feb-19 11:24 225 5 gusting 8 15.6
2017-Feb-19 11:19 225 5 gusting 7 15.6
2017-Feb-19 11:14 180 4 gusting 8 15.6
2017-Feb-19 11:09 202 3 gusting 4 15.6
2017-Feb-19 11:04 315 2 gusting 5 15.6
2017-Feb-19 10:59 225 2 gusting 4 15.0
2017-Feb-19 10:54 270 4 gusting 8 14.4
2017-Feb-19 10:49 247 2 gusting 3 14.4
2017-Feb-19 10:44 292 5 gusting 9 14.4
2017-Feb-19 10:39 247 5 gusting 7 14.4
2017-Feb-19 10:34 270 5 gusting 7 15.0
2017-Feb-19 10:29 225 5 gusting 9 15.0
2017-Feb-19 10:24 225 5 gusting 8 15.0
2017-Feb-19 10:19 202 5 gusting 7 15.0
2017-Feb-19 10:14 270 3 gusting 6 15.0
2017-Feb-19 10:09 247 2 gusting 6 15.0
2017-Feb-19 10:04 202 5 gusting 8 15.6
2017-Feb-19 09:59 292 4 gusting 6 15.6
2017-Feb-19 09:54 225 4 gusting 6 15.6
2017-Feb-19 09:49 225 6 gusting 10 15.6
2017-Feb-19 09:44 225 4 gusting 8 15.0
2017-Feb-19 09:39 247 6 gusting 9 15.0
2017-Feb-19 09:34 225 3 gusting 5 15.0
2017-Feb-19 09:29 225 4 gusting 8 15.6
2017-Feb-19 09:24 225 3 gusting 5 15.6
2017-Feb-19 09:19 135 3 gusting 5 15.0
2017-Feb-19 09:14 292 4 gusting 6 15.0
2017-Feb-19 09:09 225 3 gusting 5 15.0
2017-Feb-19 09:04 247 2 gusting 3 15.0
2017-Feb-19 08:59 202 2 gusting 5 15.0
2017-Feb-19 08:54 270 1 gusting 3 15.6
2017-Feb-19 08:49 157 1 gusting 2 15.0
2017-Feb-19 08:44 247 1 gusting 1 14.4
2017-Feb-19 08:39 135 1 gusting 1 14.4
2017-Feb-19 08:34 247 1 gusting 1 14.4
2017-Feb-19 08:29 270 0 gusting 1 14.4
2017-Feb-19 08:24 202 0 gusting 1 13.9
2017-Feb-19 08:19 225 13.9
2017-Feb-19 08:14 292 0 gusting 1 13.3
2017-Feb-19 08:09 270 1 gusting 2 13.3
2017-Feb-19 08:04 225 12.8
2017-Feb-19 07:59 157 1 gusting 1 12.2
2017-Feb-19 07:54 157 1 gusting 3 12.2
2017-Feb-19 07:49 202 3 gusting 3 12.2
2017-Feb-19 07:44 180 1 gusting 2 12.2
2017-Feb-19 07:39 157 1 gusting 2 12.2
2017-Feb-19 07:34 157 1 gusting 3 11.7
2017-Feb-19 07:29 090 1 gusting 2 11.7
2017-Feb-19 07:24 157 2 gusting 5 11.7
2017-Feb-19 07:19 135 1 gusting 3 11.7
2017-Feb-19 07:14 180 2 gusting 4 12.2
2017-Feb-19 07:09 225 1 gusting 2 13.3
2017-Feb-19 07:04 157 1 gusting 3 13.9
2017-Feb-19 06:59 112 13.3
2017-Feb-19 06:54 112 12.8
2017-Feb-19 06:49 135 2 gusting 5 11.7
2017-Feb-19 06:44 135 0 gusting 0 11.1
2017-Feb-19 06:39 090 0 gusting 1 10.6
2017-Feb-19 06:34 157 0 gusting 2 10.0
2017-Feb-19 06:29 112 1 gusting 2 10.0
2017-Feb-19 06:24 090 0 gusting 1 10.0
2017-Feb-19 06:19 090 0 gusting 1 10.0
2017-Feb-19 06:14 090 1 gusting 1 9.4
2017-Feb-19 06:09 090 0 gusting 2 9.4
2017-Feb-19 06:04 022 8.9
2017-Feb-19 05:59 090 0 gusting 1 8.3
2017-Feb-19 05:54 337 0 gusting 1 7.8
2017-Feb-19 05:49 090 7.2
2017-Feb-19 05:44 090 0 gusting 1 7.2
2017-Feb-19 05:39 022 7.2
2017-Feb-19 05:34 022 7.2
2017-Feb-19 05:29 067 1 gusting 2 6.7
2017-Feb-19 05:24 045 6.7
2017-Feb-19 05:19 022 6.7
2017-Feb-19 05:14 112 1 gusting 2 6.7
2017-Feb-19 05:09 067 0 gusting 1 6.1
2017-Feb-19 05:04 112 6.1
2017-Feb-19 04:59 090 0 gusting 1 6.1
2017-Feb-19 04:54 090 0 gusting 1 6.1
2017-Feb-19 04:49 090 0 gusting 1 6.1
2017-Feb-19 04:44 067 6.1
2017-Feb-19 04:39 090 1 gusting 1 5.6
2017-Feb-19 04:34 090 0 gusting 0 5.6
2017-Feb-19 04:29 090 0 gusting 0 5.6
2017-Feb-19 04:24 090 0 gusting 1 5.6
2017-Feb-19 04:19 090 1 gusting 2 5.6
2017-Feb-19 04:14 067 0 gusting 1 5.6
2017-Feb-19 04:09 045 0 gusting 1 5.6
2017-Feb-19 04:04 067 1 gusting 2 5.6
2017-Feb-19 03:59 090 0 gusting 0 5.6
2017-Feb-19 03:54 090 2 gusting 3 5.6
2017-Feb-19 03:49 090 1 gusting 3 5.6
2017-Feb-19 03:44 090 0 gusting 1 5.6
2017-Feb-19 03:39 067 0 gusting 1 5.6
2017-Feb-19 03:34 337 0 gusting 2 5.6
2017-Feb-19 03:29 090 1 gusting 2 5.6
2017-Feb-19 03:24 045 1 gusting 2 5.6
2017-Feb-19 03:19 090 6.1
2017-Feb-19 03:14 090 0 gusting 1 6.1
2017-Feb-19 03:09 090 2 gusting 3 6.1
2017-Feb-19 03:04 090 2 gusting 4 6.1
2017-Feb-19 02:59 090 2 gusting 5 6.1
2017-Feb-19 02:54 090 2 gusting 3 6.1
2017-Feb-19 02:49 112 2 gusting 3 6.1
2017-Feb-19 02:44 090 0 gusting 1 6.1
2017-Feb-19 02:39 090 0 gusting 1 6.1
2017-Feb-19 02:34 112 2 gusting 3 6.1
2017-Feb-19 02:29 112 2 gusting 3 6.1
2017-Feb-19 02:24 090 1 gusting 1 6.1
2017-Feb-19 02:19 090 2 gusting 3 6.1
2017-Feb-19 02:14 090 2 gusting 3 6.1
2017-Feb-19 02:09 090 2 gusting 3 6.1
2017-Feb-19 02:04 067 2 gusting 3 6.1
2017-Feb-19 01:59 090 0 gusting 1 6.1
2017-Feb-19 01:54 090 1 gusting 1 6.1
2017-Feb-19 01:49 067 2 gusting 3 6.1
2017-Feb-19 01:44 045 2 gusting 3 6.1
2017-Feb-19 01:39 090 1 gusting 2 6.1
2017-Feb-19 01:34 067 1 gusting 1 6.1
2017-Feb-19 01:29 090 0 gusting 1 6.1
2017-Feb-19 01:24 6.1
2017-Feb-19 01:19 090 1 gusting 2 6.1
2017-Feb-19 01:14 090 3 gusting 4 6.1
2017-Feb-19 01:09 112 3 gusting 4 5.6
2017-Feb-19 01:04 090 3 gusting 4 5.6
2017-Feb-19 00:59 135 3 gusting 4 5.6
2017-Feb-19 00:54 045 2 gusting 3 5.6
2017-Feb-19 00:49 067 1 gusting 2 5.6
2017-Feb-19 00:44 090 0 gusting 1 5.6
2017-Feb-19 00:39 045 0 gusting 1 5.6
2017-Feb-19 00:34 112 1 gusting 2 5.6
2017-Feb-19 00:29 067 0 gusting 2 5.6
2017-Feb-19 00:24 090 1 gusting 2 5.6
2017-Feb-19 00:19 067 0 gusting 1 6.1
2017-Feb-19 00:14 045 0 gusting 1 6.1
2017-Feb-19 00:09 090 2 gusting 3 6.1
2017-Feb-19 00:04 090 1 gusting 2 6.1
2017-Feb-18 23:59 090 6.1
2017-Feb-18 23:54 067 0 gusting 1 6.7
2017-Feb-18 23:49 045 0 gusting 0 6.7
2017-Feb-18 23:44 112 1 gusting 1 6.7
2017-Feb-18 23:39 135 2 gusting 3 6.7
2017-Feb-18 23:34 090 2 gusting 4 7.2
2017-Feb-18 23:29 090 1 gusting 2 7.2
2017-Feb-18 23:24 067 3 gusting 4 7.2
2017-Feb-18 23:19 090 1 gusting 2 7.2
2017-Feb-18 23:14 090 2 gusting 3 7.2
2017-Feb-18 23:09 090 1 gusting 2 7.2
2017-Feb-18 23:04 090 3 gusting 3 7.2
2017-Feb-18 22:59 090 2 gusting 3 7.2
2017-Feb-18 22:54 112 0 gusting 1 7.2
2017-Feb-18 22:49 090 1 gusting 1 7.2
2017-Feb-18 22:44 090 1 gusting 1 6.7
2017-Feb-18 22:39 090 2 gusting 3 6.7
2017-Feb-18 22:34 090 1 gusting 3 6.7
2017-Feb-18 22:29 090 2 gusting 4 6.7
2017-Feb-18 22:24 090 1 gusting 2 6.7
2017-Feb-18 22:19 090 1 gusting 3 6.7
2017-Feb-18 22:14 090 2 gusting 3 6.1
2017-Feb-18 22:09 090 1 gusting 2 6.1
2017-Feb-18 22:04 135 1 gusting 2 6.1
2017-Feb-18 21:59 090 1 gusting 3 6.1
2017-Feb-18 21:54 090 3 gusting 4 6.1
2017-Feb-18 21:49 090 3 gusting 5 5.6
2017-Feb-18 21:44 090 1 gusting 2 5.0
2017-Feb-18 21:39 090 0 gusting 0 5.0
2017-Feb-18 21:34 090 5.6
2017-Feb-18 21:29 045 2 gusting 3 5.6
2017-Feb-18 21:24 090 0 gusting 1 5.6
2017-Feb-18 21:19 112 2 gusting 3 5.6
2017-Feb-18 21:14 112 0 gusting 1 5.6
2017-Feb-18 21:09 090 0 gusting 1 5.6
2017-Feb-18 21:04 112 0 gusting 0 5.6
2017-Feb-18 20:59 067 0 gusting 1 5.6
2017-Feb-18 20:54 090 1 gusting 2 5.6
2017-Feb-18 20:49 090 1 gusting 2 5.6
2017-Feb-18 20:44 090 1 gusting 1 5.6
2017-Feb-18 20:39 090 0 gusting 0 5.6
2017-Feb-18 20:34 090 1 gusting 1 5.6
2017-Feb-18 20:29 090 1 gusting 1 5.6
2017-Feb-18 20:24 090 0 gusting 1 5.6
2017-Feb-18 20:19 090 1 gusting 2 5.6
2017-Feb-18 20:14 090 0 gusting 1 5.6
2017-Feb-18 20:09 090 0 gusting 1 5.6
2017-Feb-18 20:04 090 1 gusting 2 5.6
2017-Feb-18 19:59 090 1 gusting 2 5.6
2017-Feb-18 19:54 090 1 gusting 2 5.6
2017-Feb-18 19:49 112 1 gusting 3 5.6
2017-Feb-18 19:44 090 1 gusting 2 5.6
2017-Feb-18 19:39 112 0 gusting 1 5.6
2017-Feb-18 19:34 090 6.1
2017-Feb-18 19:29 112 6.1
2017-Feb-18 19:24 090 0 gusting 1 6.1
2017-Feb-18 19:19 090 1 gusting 1 6.1
2017-Feb-18 19:14 090 0 gusting 1 6.1
2017-Feb-18 19:09 090 5.6
2017-Feb-18 19:04 067 6.1
2017-Feb-18 18:59 067 6.1
2017-Feb-18 18:54 090 6.1
2017-Feb-18 18:49 090 0 gusting 1 6.7
2017-Feb-18 18:44 090 0 gusting 0 6.7
2017-Feb-18 18:39 067 6.7
2017-Feb-18 18:34 067 6.7
2017-Feb-18 18:29 090 1 gusting 1 7.2
2017-Feb-18 18:24 112 1 gusting 2 7.2
2017-Feb-18 18:19 090 1 gusting 2 7.2
2017-Feb-18 18:14 090 1 gusting 1 7.2
2017-Feb-18 18:09 090 1 gusting 1 7.2
2017-Feb-18 18:04 090 1 gusting 1 7.2
2017-Feb-18 17:59 090 1 gusting 1 7.2
2017-Feb-18 17:54 090 1 gusting 1 7.2
2017-Feb-18 17:49 090 1 gusting 1 7.2
2017-Feb-18 17:44 090 1 gusting 2 7.2
2017-Feb-18 17:39 090 1 gusting 1 7.8
2017-Feb-18 17:34 112 1 gusting 2 7.8
2017-Feb-18 17:29 112 1 gusting 1 7.8
2017-Feb-18 17:24 090 1 gusting 1 7.8
2017-Feb-18 17:19 090 1 gusting 2 7.8
2017-Feb-18 17:14 090 1 gusting 3 7.8
2017-Feb-18 17:09 067 1 gusting 3 7.8
2017-Feb-18 17:04 045 0 gusting 1 8.3
2017-Feb-18 16:59 067 1 gusting 2 8.3
2017-Feb-18 16:54 090 0 gusting 1 8.3
2017-Feb-18 16:49 090 1 gusting 2 8.3
2017-Feb-18 16:44 112 2 gusting 3 8.3
2017-Feb-18 16:39 090 2 gusting 3 8.9
2017-Feb-18 16:34 112 1 gusting 2 8.9
2017-Feb-18 16:29 090 1 gusting 2 8.9
2017-Feb-18 16:24 090 1 gusting 1 8.9
2017-Feb-18 16:19 112 1 gusting 1 9.4
2017-Feb-18 16:14 112 1 gusting 2 9.4
2017-Feb-18 16:09 157 0 gusting 0 10.0
2017-Feb-18 16:04 135 1 gusting 1 10.6
2017-Feb-18 15:59 157 11.1
2017-Feb-18 15:54 180 0 gusting 0 11.1
2017-Feb-18 15:49 315 1 gusting 2 11.7
2017-Feb-18 15:44 270 2 gusting 3 12.2
2017-Feb-18 15:39 247 0 gusting 1 12.8
2017-Feb-18 15:34 270 1 gusting 3 12.8
2017-Feb-18 15:29 247 2 gusting 3 13.3
2017-Feb-18 15:24 202 0 gusting 1 13.3
2017-Feb-18 15:19 270 3 gusting 5 13.3
2017-Feb-18 15:14 270 3 gusting 4 13.9
2017-Feb-18 15:09 292 2 gusting 4 13.3
2017-Feb-18 15:04 180 4 gusting 5 13.3
2017-Feb-18 14:59 247 2 gusting 2 13.9
2017-Feb-18 14:54 225 3 gusting 4 14.4
2017-Feb-18 14:49 292 4 gusting 5 15.0
2017-Feb-18 14:44 225 5 gusting 6 15.0
2017-Feb-18 14:39 225 5 gusting 7 15.6
2017-Feb-18 14:34 225 4 gusting 6 15.6
2017-Feb-18 14:29 247 5 gusting 6 15.6
2017-Feb-18 14:24 225 3 gusting 6 15.6
2017-Feb-18 14:19 225 1 gusting 2 16.1
2017-Feb-18 14:14 270 3 gusting 6 16.1
2017-Feb-18 14:09 180 3 gusting 5 16.1
2017-Feb-18 14:04 270 2 gusting 3 16.1
2017-Feb-18 13:59 315 1 gusting 3 16.1
2017-Feb-18 13:54 292 3 gusting 4 16.1
2017-Feb-18 13:49 202 3 gusting 5 16.1
2017-Feb-18 13:44 247 2 gusting 4 15.6
2017-Feb-18 13:39 202 2 gusting 4 16.1
2017-Feb-18 13:34 270 6 gusting 7 16.1
2017-Feb-18 13:29 270 4 gusting 6 16.1
2017-Feb-18 13:24 270 4 gusting 6 16.7
2017-Feb-18 13:19 270 5 gusting 9 17.2
2017-Feb-18 13:14 270 3 gusting 4 16.7
2017-Feb-18 13:09 247 6 gusting 8 16.7
2017-Feb-18 13:04 270 4 gusting 6 16.7
2017-Feb-18 12:59 247 5 gusting 8 16.7
2017-Feb-18 12:54 315 4 gusting 5 16.7
2017-Feb-18 12:49 270 1 gusting 3 17.2
2017-Feb-18 12:44 247 5 gusting 6 17.2
2017-Feb-18 12:39 022 5 gusting 8 17.2
2017-Feb-18 12:34 270 4 gusting 6 16.7
2017-Feb-18 12:29 247 3 gusting 5 16.1
2017-Feb-18 12:24 225 4 gusting 6 16.1
2017-Feb-18 12:19 225 2 gusting 6 16.7
2017-Feb-18 12:14 247 2 gusting 4 16.7
2017-Feb-18 12:09 270 6 gusting 7 17.2
2017-Feb-18 12:04 270 4 gusting 6 17.2
2017-Feb-18 11:59 270 2 gusting 4 16.7
2017-Feb-18 11:54 247 4 gusting 6 16.1
2017-Feb-18 11:49 202 2 gusting 4 16.1
2017-Feb-18 11:44 247 5 gusting 6 16.1
2017-Feb-18 11:39 270 2 gusting 4 15.6
2017-Feb-18 11:34 247 4 gusting 7 16.1
2017-Feb-18 11:29 270 4 gusting 5 15.6
2017-Feb-18 11:24 180 0 gusting 1 15.0
2017-Feb-18 11:19 292 5 gusting 6 15.0
2017-Feb-18 11:14 292 4 gusting 8 16.7
2017-Feb-18 11:09 247 4 gusting 5 17.2
2017-Feb-18 11:04 315 4 gusting 5 17.2
2017-Feb-18 10:59 157 0 gusting 2 16.7
2017-Feb-18 10:54 270 5 gusting 6 16.7
2017-Feb-18 10:49 247 6 gusting 7 17.8
2017-Feb-18 10:44 315 3 gusting 5 17.8
2017-Feb-18 10:39 292 1 gusting 3 17.8
2017-Feb-18 10:34 315 2 gusting 3 17.2
2017-Feb-18 10:29 247 2 gusting 4 17.2
2017-Feb-18 10:24 225 1 gusting 3 17.8
2017-Feb-18 10:19 180 1 gusting 3 17.2
2017-Feb-18 10:14 270 3 gusting 4 17.8
2017-Feb-18 10:09 180 2 gusting 4 17.2
2017-Feb-18 10:04 225 0 gusting 0 16.1
2017-Feb-18 09:59 247 4 gusting 5 16.1
2017-Feb-18 09:54 112 1 gusting 2 15.6
2017-Feb-18 09:49 315 1 gusting 2 16.1
2017-Feb-18 09:44 270 3 gusting 5 16.1
2017-Feb-18 09:39 247 2 gusting 5 16.7
2017-Feb-18 09:34 247 4 gusting 5 16.7
2017-Feb-18 09:29 180 2 gusting 5 16.7
2017-Feb-18 09:24 270 3 gusting 5 16.7
2017-Feb-18 09:19 270 3 gusting 6 16.7
2017-Feb-18 09:14 270 2 gusting 3 16.7
2017-Feb-18 09:09 247 3 gusting 4 16.7
2017-Feb-18 09:04 247 1 gusting 2 16.1
2017-Feb-18 08:59 270 3 gusting 5 15.6
2017-Feb-18 08:54 292 3 gusting 4 14.4
2017-Feb-18 08:49 270 2 gusting 3 13.9
2017-Feb-18 08:44 225 0 gusting 1 15.0
2017-Feb-18 08:39 270 3 gusting 5 16.1
2017-Feb-18 08:34 292 1 gusting 1 16.7
2017-Feb-18 08:29 247 1 gusting 1 16.1
2017-Feb-18 08:24 202 16.7
2017-Feb-18 08:19 292 2 gusting 3 16.7
2017-Feb-18 08:14 315 1 gusting 1 16.1
2017-Feb-18 08:09 315 0 gusting 1 16.1
2017-Feb-18 08:04 247 0 gusting 1 15.6